Lid_Strength_Index
3 4 4 3 3 3 4 3 3 3 2 2 2 2 3 2 3 4 7 5 4 -1 -1 1 3 4 6 7 6 8 11 12 12 13 12 11 12 10 8 9 7 7 7 7 6
5 4 4 4 4 4 4 4 4 3 3 2 2 2 3 3 5 7 3 -1 -1 -3 4 5 6 6 8 9 8 10 12 11 10 12 12 11 11 9 9 9 8 8 6 6 6
4 4 4 4 4 4 4 5 4 4 4 3 3 3 3 3 7 7 -1 -1 -2 -2 4 5 6 7 10 10 10 10 10 9 9 10 10 11 11 9 10 9 8 9 7 7 7
3 3 3 3 4 5 5 5 5 5 4 4 4 4 3 5 13 7 -2 -2 -2 0 5 6 8 10 11 11 9 11 9 9 9 9 11 10 9 9 9 8 6 7 6 7 7
4 4 3 3 4 4 4 4 4 4 5 5 4 4 5 9 9 4 -2 -1 0 4 5 7 8 10 11 10 9 10 9 9 9 10 10 9 10 10 8 6 6 7 6 7 7
4 4 4 4 4 4 4 4 4 4 5 5 4 4 8 13 7 5 2 1 2 4 5 6 7 8 10 9 10 8 9 9 10 11 10 10 10 9 7 6 7 7 7 7 6
4 4 4 4 4 4 4 4 4 4 4 3 3 4 8 11 7 3 2 4 3 4 6 6 6 7 8 9 9 10 11 10 10 10 10 10 11 9 8 7 8 7 7 7 6
4 4 4 4 4 4 4 4 4 4 3 3 2 4 10 6 6 7 6 5 4 3 5 5 6 7 8 7 9 11 12 14 10 9 9 10 12 9 8 8 8 8 8 7 7
4 4 4 4 4 4 4 4 4 3 1 1 4 7 10 4 5 5 5 6 4 4 5 4 7 9 9 11 12 13 14 13 11 9 10 10 12 9 8 8 8 8 8 8 8
4 4 4 4 5 5 5 5 5 4 1 1 3 9 9 9 5 4 4 4 5 6 6 7 10 12 13 13 16 14 13 12 12 10 10 12 12 10 8 8 8 9 9 9 8
4 4 4 4 5 5 6 9 9 8 6 9 10 10 8 5 5 5 3 3 5 7 10 9 11 14 12 12 11 11 12 12 10 9 11 11 11 9 9 9 9 10 10 9 8
4 4 4 4 5 5 9 12 10 10 12 8 8 7 6 6 8 6 3 6 8 10 9 10 11 10 9 9 10 11 12 13 10 9 11 11 11 10 9 9 9 9 10 10 9
4 4 4 4 5 9 10 9 8 9 12 9 8 8 7 7 8 8 5 6 8 10 10 11 9 8 9 10 11 11 12 12 11 10 11 12 13 11 10 9 9 10 9 9 9
4 4 4 4 10 10 11 9 9 10 13 11 9 8 7 7 9 6 5 6 8 10 10 10 8 9 10 10 10 13 10 10 11 13 15 12 17 13 11 10 9 10 10 9 9
4 4 5 5 10 11 10 8 9 10 21 11 9 6 7 9 8 8 5 7 9 9 9 10 10 10 11 10 10 11 9 10 11 13 15 14 17 14 11 10 10 9 10 10 9
5 4 5 9 11 10 8 8 10 14 19 13 9 10 10 9 9 8 7 6 7 9 9 9 8 9 9 8 8 8 11 12 13 14 18 14 15 15 13 10 10 10 10 10 9
4 4 5 8 12 9 9 11 15 18 12 14 12 10 10 11 10 9 10 10 11 13 13 11 11 9 8 10 10 11 14 17 18 18 18 13 15 13 10 9 9 9 10 10 9
5 4 5 7 8 9 11 13 18 14 14 11 12 11 12 11 11 10 11 11 10 11 12 13 14 10 9 10 11 13 13 17 20 19 17 12 15 12 9 8 8 8 9 10 9
5 7 7 7 7 9 14 17 16 14 12 12 12 13 13 11 11 11 11 11 10 10 12 13 13 9 9 9 9 12 14 13 16 15 16 15 12 9 9 8 9 10 10 10 9
7 8 8 6 6 11 16 16 14 11 11 11 14 13 14 13 12 12 12 10 11 9 9 11 14 10 9 9 10 10 10 15 16 19 19 16 15 14 10 10 9 10 11 10 9
7 10 7 5 6 12 18 17 14 10 10 12 13 13 13 13 12 13 12 10 9 9 8 11 12 12 10 11 12 12 13 13 14 16 18 19 16 10 10 9 9 9 10 10 9
6 12 6 5 12 13 16 15 12 12 9 11 11 12 13 12 12 12 12 10 8 8 11 10 12 14 12 10 8 10 11 12 15 16 15 16 15 10 9 8 8 8 10 10 8
6 7 5 6 13 15 14 14 13 13 11 12 12 11 11 12 14 12 11 9 8 8 10 10 13 16 15 13 11 12 11 11 12 13 16 17 15 9 8 8 7 9 10 9 9
8 10 7 6 7 12 14 14 15 12 12 11 12 11 12 12 12 13 11 9 9 8 6 7 13 13 14 14 12 14 12 11 12 16 15 15 13 10 9 9 8 9 10 10 9
7 9 7 11 10 11 12 13 14 15 12 11 12 12 13 14 14 14 12 11 9 6 8 10 13 12 12 11 10 10 11 12 12 12 14 12 13 10 9 9 8 9 10 10 9
8 8 6 9 8 9 9 12 13 13 14 13 13 12 12 14 13 14 12 12 12 11 11 10 13 12 13 11 11 11 10 11 11 11 12 11 12 8 8 7 7 9 10 10 9
5 4 6 9 9 10 10 10 10 11 11 11 11 12 13 12 11 11 11 11 11 12 13 11 12 14 15 12 12 14 11 11 11 11 10 13 10 8 9 8 8 7 9 9 9